Вернуться в каталог

SL-16 DEB

АктивенLEO
NORAD 22455·DEBRIS·🇷🇺 Russia

Запущен Dec 25, 1992 с Baikonur Cosmodrome

Loading…

Ближайшие Пролёты (ближайшие 24 часа)

TLE

СвежийSource: Space-Track

Эпоха: Sep 14, 2026, 08:55 UTC

1 22455U 92093EU  26257.37215919  .00014765  00000-0  20345-2 0  9999
2 22455  70.8329  90.1922 0050369 146.6988 277.8521 14.77411226729754

Отслеживайте SL-16 DEB в реальном времени с AllMySat

Download on the App Store